You are listening to:
EHAM App/Dep TMA East - Amsterdam, Netherlands

EHAM 181355Z 10004KT 050V160 9999 FEW038 FEW048TCU 23/11 Q1010 NOSIG

If stream doesn't start automatically press the play button
If stream stops then reload player then press play